San Diego, CA

10:43 AM PDT on October 17, 2017 (GMT -0700)
San Diego International-Lindbergh

Weather History for KSAN - March, 2014

Change the Weather History Date:

Saturday, March 29, 2014

  Actual Average Record
Temperature  
Mean Temperature 64 °F 60 °F  
Max Temperature 71 °F 66 °F 99 °F (1879)
Min Temperature 56 °F 54 °F 43 °F (1884)
Degree Days  
Heating Degree Days 1 5  
Month to date heating degree days 37 168  
Since 1 July heating degree days 493 1026  
Cooling Degree Days 0 0  
Month to date cooling degree days 20 0  
Year to date cooling degree days 29 5  
Growing Degree Days 13 (Base 50)    
Moisture  
Dew Point 52 °F    
Average Humidity 64    
Maximum Humidity 77    
Minimum Humidity 51    
Precipitation  
Precipitation 0.00 in 0.05 in 0.47 in (1925)
Month to date precipitation 1.28 1.73  
Year to date precipitation 2.29 5.98  
Since 1 July precipitation 4.53  
Snow  
Snow 0.00 in - - ()
Month to date snowfall 0.0  
Year to date snowfall 0.0  
Snow Depth 0.00 in    
Sea Level Pressure  
Sea Level Pressure 30.07 in    
Wind  
Wind Speed 6 mph (NW)    
Max Wind Speed 15 mph    
Max Gust Speed 17 mph    
Visibility 10 miles    
Events      
T = Trace of Precipitation, MM = Missing Value Source: NWS Daily Summary

Daily Weather History Graph

Daily Weather History Graph

Search for Another Location

Airport or City:

Trip Planner

Search our weather history database for the weather conditions in past years. The results will help you decide how hot, cold, wet, or windy it might be!

Date:

Astronomy

Mar. 29, 2014 Rise Set
Actual Time 6:40 AM PDT 7:06 PM PDT
Civil Twilight 6:15 AM PDT 7:31 PM PDT
Nautical Twilight 5:46 AM PDT 8:00 PM PDT
Astronomical Twilight 5:17 AM PDT 8:30 PM PDT
Moon 5:48 AM PDT (3/29) 6:18 PM PDT (3/29)
Length of Visible Light 13h 15m
Length of Day
12h 26m
Waning Crescent, 1% of the Moon is Illuminated
Mar 29
Waning Crescent
Mar 30
New
Apr 7
First Quarter
Apr 15
Full
Apr 22
Last Quarter

Hourly Weather History & Observations

Time (PDT) Temp. Dew Point Humidity Pressure Visibility Wind Dir Wind Speed Gust Speed Precip Events Conditions
12:51 AM 60.1 °F 51.1 °F 72% 30.15 in 10.0 mi Calm Calm - N/A   Clear
1:51 AM 60.1 °F 51.1 °F 72% 30.15 in 10.0 mi Calm Calm - N/A   Clear
2:51 AM 59.0 °F 50.0 °F 72% 30.13 in 10.0 mi Calm Calm - N/A   Clear
3:51 AM 57.9 °F 50.0 °F 75% 30.12 in 10.0 mi Calm Calm - N/A   Clear
4:51 AM 57.9 °F 50.0 °F 75% 30.09 in 10.0 mi Calm Calm - N/A   Clear
5:51 AM 57.9 °F 48.9 °F 72% 30.10 in 10.0 mi Calm Calm - N/A   Partly Cloudy
6:51 AM 57.0 °F 48.9 °F 74% 30.11 in 10.0 mi NNE 3.5 mph - N/A   Scattered Clouds
7:51 AM 59.0 °F 50.0 °F 72% 30.12 in 10.0 mi ENE 4.6 mph - N/A   Partly Cloudy
8:51 AM 63.0 °F 51.1 °F 65% 30.11 in 10.0 mi North 6.9 mph - N/A   Partly Cloudy
9:51 AM 66.9 °F 51.1 °F 57% 30.10 in 10.0 mi NNW 5.8 mph - N/A   Scattered Clouds
10:51 AM 70.0 °F 52.0 °F 53% 30.08 in 10.0 mi Variable 3.5 mph - N/A   Scattered Clouds
11:51 AM 69.1 °F 50.0 °F 51% 30.08 in 10.0 mi WNW 12.7 mph - N/A   Mostly Cloudy
12:51 PM 70.0 °F 51.1 °F 51% 30.06 in 10.0 mi NW 12.7 mph - N/A   Scattered Clouds
1:51 PM 69.1 °F 52.0 °F 54% 30.05 in 10.0 mi NW 12.7 mph - N/A   Scattered Clouds
2:51 PM 69.1 °F 54.0 °F 58% 30.03 in 10.0 mi WNW 10.4 mph - N/A   Mostly Cloudy
3:51 PM 69.1 °F 51.1 °F 53% 30.02 in 10.0 mi WNW 11.5 mph - N/A   Mostly Cloudy
4:51 PM 69.1 °F 52.0 °F 54% 30.01 in 10.0 mi WNW 11.5 mph - N/A   Mostly Cloudy
5:51 PM 66.9 °F 54.0 °F 63% 30.00 in 10.0 mi WNW 9.2 mph - N/A   Mostly Cloudy
6:51 PM 64.9 °F 55.0 °F 70% 30.00 in 10.0 mi WNW 8.1 mph - N/A   Mostly Cloudy
7:51 PM 64.0 °F 55.9 °F 75% 30.01 in 10.0 mi WNW 8.1 mph - N/A   Mostly Cloudy
8:51 PM 64.0 °F 55.9 °F 75% 30.03 in 10.0 mi NNW 3.5 mph - N/A   Mostly Cloudy
9:51 PM 64.0 °F 52.0 °F 65% 30.04 in 10.0 mi NNW 5.8 mph - N/A   Scattered Clouds
10:51 PM 63.0 °F 53.1 °F 70% 30.04 in 10.0 mi NW 3.5 mph - N/A   Mostly Cloudy
10:57 PM 62.6 °F 53.6 °F 72% 30.04 in 10.0 mi NNW 3.5 mph - N/A   Mostly Cloudy
11:51 PM 63.0 °F 55.0 °F 75% 30.04 in 10.0 mi Calm Calm - N/A   Mostly Cloudy